Anchorage Weather Center

Moon Phase Calendar



Online Cameras

 


      

Current Conditions in Anchorage
10/19/2020 1:18:48 PM

34°F
Feels Like 26
Snow
Humidity
69%
Pressure
30.12"
Wind
5.8 mph (NE)
Dew Point
26°F
UV Index
1/10 (Low)
Visibility
6 mi

Hourly Forecast

Date & Time Mon, Oct 19
1:00 PM
Mon, Oct 19
2:00 PM
Mon, Oct 19
3:00 PM
Mon, Oct 19
4:00 PM
Mon, Oct 19
5:00 PM
Mon, Oct 19
6:00 PM
Mon, Oct 19
7:00 PM
Mon, Oct 19
8:00 PM
Mon, Oct 19
9:00 PM
Mon, Oct 19
10:00 PM
Mon, Oct 19
11:00 PM
Tue, Oct 20
12:00 AM
Tue, Oct 20
1:00 AM
Tue, Oct 20
2:00 AM
Tue, Oct 20
3:00 AM
Tue, Oct 20
4:00 AM
Tue, Oct 20
5:00 AM
Tue, Oct 20
6:00 AM
Tue, Oct 20
7:00 AM
Tue, Oct 20
8:00 AM
Tue, Oct 20
9:00 AM
Tue, Oct 20
10:00 AM
Tue, Oct 20
11:00 AM
Tue, Oct 20
12:00 PM
Tue, Oct 20
1:00 PM
Tue, Oct 20
2:00 PM
Tue, Oct 20
3:00 PM
Tue, Oct 20
4:00 PM
Tue, Oct 20
5:00 PM
Tue, Oct 20
6:00 PM
Tue, Oct 20
7:00 PM
Tue, Oct 20
8:00 PM
Tue, Oct 20
9:00 PM
Tue, Oct 20
10:00 PM
Tue, Oct 20
11:00 PM
Wed, Oct 21
12:00 AM
Wed, Oct 21
1:00 AM
Wed, Oct 21
2:00 AM
Wed, Oct 21
3:00 AM
Wed, Oct 21
4:00 AM
Wed, Oct 21
5:00 AM
Wed, Oct 21
6:00 AM
Wed, Oct 21
7:00 AM
Wed, Oct 21
8:00 AM
Wed, Oct 21
9:00 AM
Wed, Oct 21
10:00 AM
Wed, Oct 21
11:00 AM
Wed, Oct 21
12:00 PM
Condition
Clouds

Clouds

Clouds

Clear

Clear

Clear

Clouds

Clouds

Clouds

Clouds

Clouds

Clouds

Clouds

Clouds

Clouds

Clouds

Clouds

Clouds

Clouds

Clouds

Clouds

Clouds

Clouds

Clouds

Clouds

Clouds

Clouds

Clouds

Clouds

Clouds

Clouds

Clouds

Clear

Clear

Clear

Clear

Clear

Clear

Clear

Clear

Clear

Clear

Clear

Clear

Clear

Clear

Clear

Clear
Temperature 34°F35°F36°F36°F36°F35°F34°F34°F33°F33°F33°F33°F33°F33°F33°F33°F33°F32°F32°F32°F32°F33°F33°F34°F35°F35°F36°F36°F36°F34°F34°F34°F34°F33°F33°F32°F32°F32°F32°F32°F31°F31°F31°F31°F31°F31°F32°F34°F
Feels Like 28°F29°F30°F31°F31°F30°F29°F29°F29°F29°F29°F28°F28°F28°F28°F28°F28°F27°F27°F27°F27°F27°F28°F29°F29°F29°F30°F30°F31°F30°F30°F30°F29°F28°F27°F27°F27°F26°F26°F26°F26°F25°F25°F25°F25°F26°F27°F28°F
Cloudiness 75%41%20%9%3%6%14%22%26%29%55%55%51%48%50%54%69%67%62%63%62%59%51%58%64%69%68%64%35%24%17%12%10%8%0%0%0%0%0%0%0%0%0%0%0%0%0%0%
Visibility 6 mi6 mi6 mi6 mi6 mi6 mi6 mi6 mi6 mi6 mi6 mi6 mi6 mi6 mi6 mi6 mi6 mi6 mi6 mi6 mi6 mi6 mi6 mi6 mi6 mi6 mi6 mi6 mi6 mi6 mi6 mi6 mi6 mi6 mi6 mi6 mi6 mi6 mi6 mi6 mi6 mi6 mi6 mi6 mi6 mi6 mi6 mi6 mi
Precipitation 0%0%0%0%0%0%0%0%0%0%0%0%0%0%0%0%0%0%0%0%0%0%0%0%0%0%0%0%0%0%0%0%0%0%0%0%0%0%0%0%0%0%0%0%0%0%0%0%
Humidity 69%75%77%80%81%86%88%89%89%90%90%90%91%92%92%92%92%93%93%94%94%92%89%85%83%80%79%78%79%83%84%85%85%87%89%91%91%91%92%92%92%92%92%92%92%92%90%85%
Dew Point 26°F29°F30°F31°F31°F28°F27°F27°F27°F27°F26°F26°F26°F26°F26°F27°F27°F27°F27°F26°F26°F26°F26°F26°F25°F25°F24°F24°F24°F24°F23°F23°F23°F24°F24°F24°F24°F24°F24°F24°F24°F24°F24°F23°F23°F23°F23°F24°F
Pressure 30.12"30.12"30.09"30.09"30.09"30.12"30.12"30.12"30.15"30.15"30.15"30.18"30.18"30.21"30.21"30.24"30.24"30.27"30.27"30.3"30.3"30.33"30.33"30.36"30.36"30.39"30.39"30.42"30.42"30.45"30.45"30.47"30.47"30.5"30.5"30.53"30.53"30.53"30.56"30.56"30.56"30.56"30.56"30.56"30.56"30.56"30.56"30.56"
Wind Speed 3.8 mph3.9 mph3.8 mph3.4 mph2.8 mph2.2 mph1.6 mph1.5 mph1.8 mph1.5 mph1.6 mph2.1 mph2.6 mph2.5 mph2.4 mph2.4 mph2.4 mph2.5 mph2.8 mph2.6 mph2.7 mph2.7 mph2.9 mph3.4 mph3.8 mph4.2 mph3.4 mph3 mph1.8 mph0.4 mph0.8 mph0.3 mph1.1 mph2.4 mph2.5 mph2.1 mph2.5 mph3.4 mph3.5 mph3.4 mph3.4 mph3.3 mph3 mph2.7 mph2.8 mph2.1 mph2 mph2.5 mph
Wind
Direction
348°
NNW
334°
NNW
329°
NNW
329°
NNW
332°
NNW
344°
NNW
356°
N

N
28°
NNE
34°
NE
10°
N

N

N

N
12°
NNE

N
357°
N
356°
N
354°
N
347°
NNW
345°
NNW
346°
NNW
331°
NNW
329°
NNW
328°
NNW
321°
NW
329°
NNW
331°
NNW
327°
NNW

N
129°
SE
187°
S
260°
W
297°
WNW
320°
NW
339°
NNW
344°
NNW
356°
N
354°
N
357°
N
354°
N

N
15°
NNE

N
15°
NNE

N
350°
N

N

Daily Forecast

Date High Low Precip. Humidity
Today
Oct 19

Clouds
35 °F
33 °F
0%
69%
Tuesday
Oct 20

Clouds
36 °F
32 °F
0%
83%
Wednesday
Oct 21

Clear
36 °F
31 °F
0%
82%
Thursday
Oct 22

Clouds
37 °F
33 °F
0%
72%
Friday
Oct 23

Clouds
37 °F
33 °F
57%
73%
Saturday
Oct 24

Clouds
38 °F
34 °F
3%
73%
Sunday
Oct 25

Clouds
38 °F
34 °F
10%
81%
Monday
Oct 26

Rain
42 °F
34 °F
100%
95%
Tuesday
Oct 27

Clouds
41 °F
39 °F
26%
76%
Wednesday
Oct 28

Rain
39 °F
35 °F
52%
86%
Thursday
Oct 29

Clouds
35 °F
32 °F
0%
89%
Friday
Oct 30

Clouds
32 °F
27 °F
0%
94%
Saturday
Oct 31

Clouds
25 °F
20 °F
0%
89%
Sunday
Nov 1

Snow
20 °F
16 °F
25%
86%
Monday
Nov 2

Snow
16 °F
12 °F
36%
85%
Tuesday
Nov 3

Snow
15 °F
11 °F
37%
89%


Temperature 8-14 Day Outlook



Precipitation 8-14 Day Outlook




Quick Links
Anchorage News
Anchorage Photos
Anchorage Videos




About Us
Contact Us
Site Map
Search Site
Advertise With Us
   
Anchorage.USCoast.info
THE ANCHORAGE WEBSITE

Copyright 2020, Coastal Town
Privacy    |    Legal